{"data":{"norad_id":58712,"intl_designator":"2024-002H","name":"STARLINK-31029","alt_names":[],"object_type":"PAYLOAD","status":"ACTIVE","operator":null,"country":"US","launch_date":"2024-01-03","launch_site_code":"AFWTR","launch_vehicle":null,"mission":null,"orbit_class":"UNKNOWN","rcs_meters":null,"size_class":null,"mass_kg":null,"dimensions":null,"purposes":["comms"],"wikipedia_slug":null,"has_3d_model":false,"image_url":null,"decayed_at":null,"tle_current":{"epoch":"2026-05-25T05:04:43.307904Z","epoch_age_seconds":67155,"freshness":"FRESH","line1":"1 58712U 24002H   26145.21161236  .00000867  00000+0  41387-4 0  9998","line2":"2 58712  53.1616 234.3260 0000563  92.2823 267.8242 15.30195720133738","mean_motion":15.3019572,"eccentricity":5.63e-5,"inclination_deg":53.1616,"raan_deg":234.326,"arg_perigee_deg":92.2823,"mean_anomaly_deg":267.8242,"bstar":4.1387e-5,"rev_number":13373,"period_min":94.105608921714,"perigee_km":474.84200431665,"apogee_km":475.61369319862,"semimajor_km":6853.3648487576,"source":"CELESTRAK","updated_at":"2026-05-25T13:38:18.716079Z"}}}